Time,TemperatureF,DewpointF,PressureIn,WindDirection,WindDirectionDegrees,WindSpeedMPH,WindSpeedGustMPH,Humidity,HourlyPrecipIn,Conditions,Clouds,dailyrainin,SoftwareType,DateUTC
2013-01-24 00:02:00,13.7,2.0,30.13,ENE,73,4.0,5.0,59,0.00,,,0.00,Wunderground v.1.15,2013-01-24 05:02:00,
2013-01-24 00:03:00,13.7,1.6,30.13,ENE,74,4.0,5.0,58,0.00,,,0.00,Wunderground v.1.15,2013-01-24 05:03:00,
2013-01-24 00:07:00,13.7,1.6,30.13,ENE,75,5.0,7.0,58,0.00,,,0.00,Wunderground v.1.15,2013-01-24 05:07:00,
2013-01-24 00:09:00,13.7,2.0,30.13,ENE,78,6.0,8.0,59,0.00,,,0.00,Wunderground v.1.15,2013-01-24 05:09:00,
2013-01-24 00:14:00,13.8,2.1,30.12,ENE,77,7.0,9.0,59,0.00,,,0.00,Wunderground v.1.15,2013-01-24 05:14:00,
2013-01-24 00:19:00,13.8,2.1,30.11,East,83,8.0,9.0,59,0.00,,,0.00,Wunderground v.1.15,2013-01-24 05:19:00,
2013-01-24 00:25:00,13.8,2.1,30.11,East,80,8.0,8.0,59,0.00,,,0.00,Wunderground v.1.15,2013-01-24 05:25:00,
2013-01-24 00:30:00,13.8,2.1,30.11,East,86,7.0,7.0,59,0.00,,,0.00,Wunderground v.1.15,2013-01-24 05:30:00,
2013-01-24 00:36:00,13.8,1.7,30.12,East,83,4.0,7.0,58,0.00,,,0.00,Wunderground v.1.15,2013-01-24 05:36:00,
2013-01-24 00:41:00,13.8,1.7,30.12,East,85,3.0,3.0,58,0.00,,,0.00,Wunderground v.1.15,2013-01-24 05:41:00,
2013-01-24 00:47:00,13.9,2.2,30.12,East,85,2.0,3.0,59,0.00,,,0.00,Wunderground v.1.15,2013-01-24 05:47:00,
2013-01-24 00:52:00,13.9,2.2,30.12,East,85,3.0,3.0,59,0.00,,,0.00,Wunderground v.1.15,2013-01-24 05:52:00,
2013-01-24 00:57:00,14.0,2.3,30.12,East,85,3.0,3.0,59,0.00,,,0.00,Wunderground v.1.15,2013-01-24 05:57:00,
2013-01-24 01:02:00,14.1,2.4,30.11,East,86,2.0,3.0,59,0.00,,,0.00,Wunderground v.1.15,2013-01-24 06:02:00,
2013-01-24 01:08:00,14.1,2.7,30.11,East,88,2.0,5.0,60,0.00,,,0.00,Wunderground v.1.15,2013-01-24 06:08:00,
2013-01-24 01:13:00,14.2,2.8,30.11,East,88,3.0,3.0,60,0.00,,,0.00,Wunderground v.1.15,2013-01-24 06:13:00,
2013-01-24 01:18:00,14.2,2.5,30.11,East,88,2.0,3.0,59,0.00,,,0.00,Wunderground v.1.15,2013-01-24 06:18:00,
2013-01-24 01:24:00,14.2,2.5,30.11,East,88,1.0,2.0,59,0.00,,,0.00,Wunderground v.1.15,2013-01-24 06:24:00,
2013-01-24 01:29:00,14.2,2.5,30.10,East,88,1.0,2.0,59,0.00,,,0.00,Wunderground v.1.15,2013-01-24 06:29:00,
2013-01-24 01:34:00,14.3,2.9,30.10,East,89,2.0,5.0,60,0.00,,,0.00,Wunderground v.1.15,2013-01-24 06:34:00,
2013-01-24 01:40:00,14.3,2.9,30.10,East,90,2.0,3.0,60,0.00,,,0.00,Wunderground v.1.15,2013-01-24 06:40:00,
2013-01-24 01:45:00,14.4,3.0,30.10,East,94,2.0,3.0,60,0.00,,,0.00,Wunderground v.1.15,2013-01-24 06:45:00,
2013-01-24 01:51:00,14.4,2.7,30.10,East,94,2.0,2.0,59,0.00,,,0.00,Wunderground v.1.15,2013-01-24 06:51:00,
2013-01-24 01:56:00,14.4,2.7,30.10,East,94,2.0,2.0,59,0.00,,,0.00,Wunderground v.1.15,2013-01-24 06:56:00,
2013-01-24 02:01:00,14.4,2.7,30.10,East,94,1.0,2.0,59,0.00,,,0.00,Wunderground v.1.15,2013-01-24 07:01:00,
2013-01-24 02:07:00,14.5,2.8,30.10,East,96,1.0,2.0,59,0.00,,,0.00,Wunderground v.1.15,2013-01-24 07:07:00,
2013-01-24 02:12:00,14.5,3.1,30.10,SE,143,1.0,2.0,60,0.00,,,0.00,Wunderground v.1.15,2013-01-24 07:12:00,
2013-01-24 02:18:00,14.6,3.9,30.10,SE,143,1.0,3.0,62,0.00,,,0.00,Wunderground v.1.15,2013-01-24 07:18:00,
2013-01-24 02:24:00,14.5,4.2,30.10,SE,143,1.0,1.0,63,0.00,,,0.00,Wunderground v.1.15,2013-01-24 07:24:00,
2013-01-24 02:29:00,14.5,4.5,30.11,SE,144,1.0,2.0,64,0.00,,,0.00,Wunderground v.1.15,2013-01-24 07:29:00,
2013-01-24 02:35:00,14.4,4.8,30.11,SE,146,1.0,3.0,65,0.00,,,0.00,Wunderground v.1.15,2013-01-24 07:35:00,
2013-01-24 02:40:00,14.3,4.7,30.11,SSE,149,1.0,1.0,65,0.00,,,0.00,Wunderground v.1.15,2013-01-24 07:40:00,
2013-01-24 02:46:00,14.3,5.0,30.11,SSE,150,1.0,1.0,66,0.00,,,0.00,Wunderground v.1.15,2013-01-24 07:46:00,
2013-01-24 02:52:00,14.3,5.3,30.11,SSE,150,0.0,2.0,67,0.00,,,0.00,Wunderground v.1.15,2013-01-24 07:52:00,
2013-01-24 02:58:00,14.3,6.0,30.11,SSE,149,0.0,2.0,69,0.00,,,0.00,Wunderground v.1.15,2013-01-24 07:58:00,
2013-01-24 03:04:00,14.1,6.4,30.11,SSE,150,0.0,1.0,71,0.00,,,0.00,Wunderground v.1.15,2013-01-24 08:04:00,
2013-01-24 03:10:00,14.1,6.7,30.10,SSE,150,1.0,1.0,72,0.00,,,0.00,Wunderground v.1.15,2013-01-24 08:10:00,
2013-01-24 03:16:00,14.1,7.0,30.10,SSE,149,0.0,1.0,73,0.00,,,0.00,Wunderground v.1.15,2013-01-24 08:16:00,
2013-01-24 03:22:00,14.1,7.6,30.10,SSE,150,0.0,0.0,75,0.00,,,0.00,Wunderground v.1.15,2013-01-24 08:22:00,
2013-01-24 03:28:00,14.0,7.5,30.10,SSE,149,0.0,0.0,75,0.00,,,0.00,Wunderground v.1.15,2013-01-24 08:28:00,
2013-01-24 03:33:00,14.0,7.8,30.10,SSE,150,0.0,0.0,76,0.00,,,0.00,Wunderground v.1.15,2013-01-24 08:33:00,
2013-01-24 03:39:00,14.0,8.1,30.10,SSE,149,0.0,0.0,77,0.00,,,0.00,Wunderground v.1.15,2013-01-24 08:39:00,
2013-01-24 03:44:00,14.0,8.1,30.10,SSE,150,0.0,0.0,77,0.00,,,0.00,Wunderground v.1.15,2013-01-24 08:44:00,
2013-01-24 03:51:00,14.0,8.4,30.10,SSE,149,0.0,0.0,78,0.00,,,0.00,Wunderground v.1.15,2013-01-24 08:51:00,
2013-01-24 03:56:00,13.9,8.3,30.10,SSE,149,0.0,1.0,78,0.00,,,0.00,Wunderground v.1.15,2013-01-24 08:56:00,
2013-01-24 04:02:00,13.8,8.5,30.10,SSE,150,0.0,0.0,79,0.00,,,0.00,Wunderground v.1.15,2013-01-24 09:02:00,
2013-01-24 04:07:00,13.7,8.7,30.11,SE,130,0.0,2.0,80,0.00,,,0.00,Wunderground v.1.15,2013-01-24 09:07:00,
2013-01-24 04:12:00,13.5,8.8,30.10,East,88,1.0,2.0,81,0.00,,,0.00,Wunderground v.1.15,2013-01-24 09:12:00,
2013-01-24 04:18:00,13.5,9.0,30.10,East,88,1.0,2.0,82,0.00,,,0.00,Wunderground v.1.15,2013-01-24 09:18:00,
2013-01-24 04:23:00,13.5,9.3,30.11,ENE,68,1.0,3.0,83,0.00,,,0.00,Wunderground v.1.15,2013-01-24 09:23:00,
2013-01-24 04:29:00,13.4,9.2,30.11,NE,43,2.0,3.0,83,0.00,,,0.00,Wunderground v.1.15,2013-01-24 09:29:00,
2013-01-24 04:34:00,13.4,9.5,30.11,ENE,62,2.0,3.0,84,0.00,,,0.00,Wunderground v.1.15,2013-01-24 09:34:00,
2013-01-24 04:40:00,13.3,9.6,30.11,NE,51,2.0,2.0,85,0.00,,,0.00,Wunderground v.1.15,2013-01-24 09:40:00,
2013-01-24 04:45:00,13.2,9.5,30.11,NE,54,2.0,3.0,85,0.00,,,0.00,Wunderground v.1.15,2013-01-24 09:45:00,
2013-01-24 04:51:00,13.2,9.5,30.11,ENE,57,2.0,2.0,85,0.00,,,0.00,Wunderground v.1.15,2013-01-24 09:51:00,
2013-01-24 04:56:00,13.2,9.5,30.12,NE,42,2.0,3.0,85,0.00,,,0.00,Wunderground v.1.15,2013-01-24 09:56:00,
2013-01-24 05:01:00,13.2,9.8,30.12,NE,46,2.0,2.0,86,0.00,,,0.00,Wunderground v.1.15,2013-01-24 10:01:00,
2013-01-24 05:07:00,13.1,9.7,30.12,NE,42,2.0,4.0,86,0.00,,,0.00,Wunderground v.1.15,2013-01-24 10:07:00,
2013-01-24 05:12:00,13.1,9.7,30.12,NE,40,3.0,3.0,86,0.00,,,0.00,Wunderground v.1.15,2013-01-24 10:12:00,
2013-01-24 05:18:00,13.1,9.7,30.12,NE,39,2.0,3.0,86,0.00,,,0.00,Wunderground v.1.15,2013-01-24 10:18:00,
2013-01-24 05:24:00,13.1,9.7,30.13,NE,46,2.0,4.0,86,0.00,,,0.00,Wunderground v.1.15,2013-01-24 10:24:00,
2013-01-24 05:30:00,13.1,10.0,30.13,NE,40,3.0,3.0,87,0.00,,,0.00,Wunderground v.1.15,2013-01-24 10:30:00,
2013-01-24 05:35:00,13.1,9.7,30.13,NE,40,3.0,4.0,86,0.00,,,0.00,Wunderground v.1.15,2013-01-24 10:35:00,
2013-01-24 05:41:00,13.0,9.9,30.14,NE,44,3.0,3.0,87,0.00,,,0.00,Wunderground v.1.15,2013-01-24 10:41:00,
2013-01-24 05:47:00,13.0,9.9,30.14,NE,43,3.0,5.0,87,0.00,,,0.00,Wunderground v.1.15,2013-01-24 10:47:00,
2013-01-24 05:53:00,13.0,9.9,30.14,NE,36,3.0,4.0,87,0.00,,,0.00,Wunderground v.1.15,2013-01-24 10:53:00,
2013-01-24 05:58:00,13.0,9.9,30.14,NE,34,3.0,4.0,87,0.00,,,0.00,Wunderground v.1.15,2013-01-24 10:58:00,
2013-01-24 06:04:00,12.9,9.8,30.14,NE,45,3.0,4.0,87,0.00,,,0.00,Wunderground v.1.15,2013-01-24 11:04:00,
2013-01-24 06:09:00,12.9,9.8,30.15,NE,36,3.0,4.0,87,0.00,,,0.00,Wunderground v.1.15,2013-01-24 11:09:00,
2013-01-24 06:15:00,12.8,9.7,30.15,NE,34,2.0,3.0,87,0.00,,,0.00,Wunderground v.1.15,2013-01-24 11:15:00,
2013-01-24 06:20:00,12.8,9.7,30.15,NE,49,3.0,3.0,87,0.00,,,0.00,Wunderground v.1.15,2013-01-24 11:20:00,
2013-01-24 06:26:00,12.9,9.8,30.15,NNE,28,3.0,4.0,87,0.00,,,0.00,Wunderground v.1.15,2013-01-24 11:26:00,
2013-01-24 06:31:00,12.9,9.8,30.16,NNE,19,3.0,4.0,87,0.00,,,0.00,Wunderground v.1.15,2013-01-24 11:31:00,
2013-01-24 06:37:00,12.9,9.8,30.16,NNE,30,4.0,6.0,87,0.00,,,0.00,Wunderground v.1.15,2013-01-24 11:37:00,
2013-01-24 06:42:00,12.9,9.8,30.16,NE,55,3.0,4.0,87,0.00,,,0.00,Wunderground v.1.15,2013-01-24 11:42:00,
2013-01-24 06:48:00,12.9,9.5,30.16,NE,55,3.0,4.0,86,0.00,,,0.00,Wunderground v.1.15,2013-01-24 11:48:00,
2013-01-24 06:53:00,12.9,9.5,30.17,ENE,58,3.0,5.0,86,0.00,,,0.00,Wunderground v.1.15,2013-01-24 11:53:00,
2013-01-24 06:58:00,12.8,9.1,30.17,NE,55,4.0,7.0,85,0.00,,,0.00,Wunderground v.1.15,2013-01-24 11:58:00,
2013-01-24 07:04:00,12.7,8.8,30.17,NE,56,5.0,5.0,84,0.00,,,0.00,Wunderground v.1.15,2013-01-24 12:04:00,
2013-01-24 07:09:00,12.7,8.8,30.17,ENE,59,4.0,5.0,84,0.00,,,0.00,Wunderground v.1.15,2013-01-24 12:09:00,
2013-01-24 07:14:00,12.6,8.7,30.17,ENE,59,3.0,5.0,84,0.00,,,0.00,Wunderground v.1.15,2013-01-24 12:14:00,
2013-01-24 07:20:00,12.5,8.6,30.18,NE,52,3.0,3.0,84,0.00,,,0.00,Wunderground v.1.15,2013-01-24 12:20:00,
2013-01-24 07:25:00,12.5,8.6,30.18,ENE,59,3.0,4.0,84,0.00,,,0.00,Wunderground v.1.15,2013-01-24 12:25:00,
2013-01-24 07:30:00,12.4,8.5,30.18,NE,52,3.0,3.0,84,0.00,,,0.00,Wunderground v.1.15,2013-01-24 12:30:00,
2013-01-24 07:35:00,12.4,8.5,30.18,NE,46,3.0,3.0,84,0.00,,,0.00,Wunderground v.1.15,2013-01-24 12:35:00,
2013-01-24 07:41:00,12.4,8.5,30.18,NE,50,3.0,4.0,84,0.00,,,0.00,Wunderground v.1.15,2013-01-24 12:41:00,
2013-01-24 07:46:00,12.5,8.6,30.19,NE,43,2.0,4.0,84,0.00,,,0.00,Wunderground v.1.15,2013-01-24 12:46:00,
2013-01-24 07:52:00,12.5,8.6,30.19,NNE,32,3.0,4.0,84,0.00,,,0.00,Wunderground v.1.15,2013-01-24 12:52:00,
2013-01-24 07:57:00,12.5,8.8,30.19,NNE,32,3.0,5.0,85,0.00,,,0.00,Wunderground v.1.15,2013-01-24 12:57:00,
2013-01-24 08:03:00,12.5,8.8,30.20,NNE,24,2.0,5.0,85,0.00,,,0.00,Wunderground v.1.15,2013-01-24 13:03:00,
2013-01-24 08:08:00,12.5,8.8,30.20,NNE,29,3.0,5.0,85,0.00,,,0.00,Wunderground v.1.15,2013-01-24 13:08:00,
2013-01-24 08:14:00,12.6,8.9,30.20,NNE,22,3.0,4.0,85,0.00,,,0.00,Wunderground v.1.15,2013-01-24 13:14:00,
2013-01-24 08:20:00,12.8,9.4,30.20,NNE,30,3.0,3.0,86,0.00,,,0.00,Wunderground v.1.15,2013-01-24 13:20:00,
2013-01-24 08:26:00,13.2,9.8,30.21,NE,36,4.0,6.0,86,0.00,,,0.00,Wunderground v.1.15,2013-01-24 13:26:00,
2013-01-24 08:31:00,13.6,10.2,30.21,North,5,4.0,6.0,86,0.00,,,0.00,Wunderground v.1.15,2013-01-24 13:31:00,
2013-01-24 08:36:00,13.7,10.0,30.22,NNE,30,5.0,6.0,85,0.00,,,0.00,Wunderground v.1.15,2013-01-24 13:36:00,
2013-01-24 08:42:00,13.9,10.2,30.21,NNE,22,6.0,6.0,85,0.00,,,0.00,Wunderground v.1.15,2013-01-24 13:42:00,
2013-01-24 08:48:00,14.1,10.2,30.22,NE,42,5.0,6.0,84,0.00,,,0.00,Wunderground v.1.15,2013-01-24 13:48:00,
2013-01-24 08:53:00,14.2,10.3,30.22,NE,45,5.0,7.0,84,0.00,,,0.00,Wunderground v.1.15,2013-01-24 13:53:00,
2013-01-24 08:59:00,14.4,10.2,30.22,NE,36,5.0,7.0,83,0.00,,,0.00,Wunderground v.1.15,2013-01-24 13:59:00,
2013-01-24 09:04:00,14.4,9.9,30.23,NNE,26,5.0,9.0,82,0.00,,,0.00,Wunderground v.1.15,2013-01-24 14:04:00,
2013-01-24 09:10:00,14.7,10.2,30.23,NNE,30,6.0,7.0,82,0.00,,,0.00,Wunderground v.1.15,2013-01-24 14:10:00,
2013-01-24 09:16:00,15.1,10.6,30.24,NNE,16,5.0,7.0,82,0.00,,,0.00,Wunderground v.1.15,2013-01-24 14:16:00,
2013-01-24 09:21:00,15.1,10.3,30.24,NNE,19,6.0,11.0,81,0.00,,,0.00,Wunderground v.1.15,2013-01-24 14:21:00,
2013-01-24 09:27:00,15.1,10.0,30.24,North,5,7.0,11.0,80,0.00,,,0.00,Wunderground v.1.15,2013-01-24 14:27:00,
2013-01-24 09:32:00,15.3,10.2,30.24,NNW,346,6.0,7.0,80,0.00,,,0.00,Wunderground v.1.15,2013-01-24 14:32:00,
2013-01-24 09:37:00,15.5,10.1,30.24,North,360,6.0,8.0,79,0.00,,,0.00,Wunderground v.1.15,2013-01-24 14:37:00,
2013-01-24 09:42:00,15.6,10.0,30.25,NNW,345,6.0,11.0,78,0.00,,,0.00,Wunderground v.1.15,2013-01-24 14:42:00,
2013-01-24 09:48:00,16.1,10.2,30.25,NNE,13,6.0,11.0,77,0.00,,,0.00,Wunderground v.1.15,2013-01-24 14:48:00,
2013-01-24 09:53:00,16.3,10.1,30.26,North,5,6.0,10.0,76,0.00,,,0.00,Wunderground v.1.15,2013-01-24 14:53:00,
2013-01-24 09:59:00,16.6,10.6,30.26,NNE,29,8.0,11.0,77,0.00,,,0.00,Wunderground v.1.15,2013-01-24 14:59:00,
2013-01-24 10:05:00,16.6,10.1,30.26,NE,34,8.0,13.0,75,0.00,,,0.00,Wunderground v.1.15,2013-01-24 15:05:00,
2013-01-24 10:10:00,16.7,10.1,30.27,North,355,9.0,9.0,75,0.00,,,0.00,Wunderground v.1.15,2013-01-24 15:10:00,
2013-01-24 10:16:00,17.0,10.4,30.27,NE,40,8.0,12.0,75,0.00,,,0.00,Wunderground v.1.15,2013-01-24 15:16:00,
2013-01-24 10:21:00,17.0,10.4,30.27,North,360,8.0,8.0,75,0.00,,,0.00,Wunderground v.1.15,2013-01-24 15:21:00,
2013-01-24 10:27:00,17.3,10.7,30.27,NNE,13,8.0,11.0,75,0.00,,,0.00,Wunderground v.1.15,2013-01-24 15:27:00,
2013-01-24 10:32:00,17.5,10.6,30.27,NNE,12,8.0,16.0,74,0.00,,,0.00,Wunderground v.1.15,2013-01-24 15:32:00,
2013-01-24 10:38:00,17.5,10.9,30.28,NE,42,9.0,16.0,75,0.00,,,0.00,Wunderground v.1.15,2013-01-24 15:38:00,
2013-01-24 10:43:00,17.7,10.8,30.28,NE,48,9.0,11.0,74,0.00,,,0.00,Wunderground v.1.15,2013-01-24 15:43:00,
2013-01-24 10:49:00,17.9,10.4,30.28,NNE,16,8.0,13.0,72,0.00,,,0.00,Wunderground v.1.15,2013-01-24 15:49:00,
2013-01-24 10:54:00,17.6,9.5,30.28,NNE,25,8.0,12.0,70,0.00,,,0.00,Wunderground v.1.15,2013-01-24 15:54:00,
2013-01-24 11:00:00,17.9,10.1,30.28,NNE,15,9.0,11.0,71,0.00,,,0.00,Wunderground v.1.15,2013-01-24 16:00:00,
2013-01-24 11:05:00,18.2,10.1,30.28,NNE,18,8.0,14.0,70,0.00,,,0.00,Wunderground v.1.15,2013-01-24 16:05:00,
2013-01-24 11:11:00,17.6,9.8,30.29,NE,47,10.0,10.0,71,0.00,,,0.00,Wunderground v.1.15,2013-01-24 16:11:00,
2013-01-24 11:16:00,17.5,10.0,30.29,NE,42,10.0,11.0,72,0.00,,,0.00,Wunderground v.1.15,2013-01-24 16:16:00,
2013-01-24 11:21:00,17.6,9.8,30.29,North,9,9.0,10.0,71,0.00,,,0.00,Wunderground v.1.15,2013-01-24 16:21:00,
2013-01-24 11:27:00,18.6,11.1,30.29,NNW,340,7.0,11.0,72,0.00,,,0.00,Wunderground v.1.15,2013-01-24 16:27:00,
2013-01-24 11:33:00,18.8,10.0,30.29,NNW,345,7.0,11.0,68,0.00,,,0.00,Wunderground v.1.15,2013-01-24 16:33:00,
2013-01-24 11:38:00,18.2,9.7,30.29,NE,38,9.0,13.0,69,0.00,,,0.00,Wunderground v.1.15,2013-01-24 16:38:00,
2013-01-24 11:43:00,18.6,10.8,30.29,NNE,22,9.0,10.0,71,0.00,,,0.00,Wunderground v.1.15,2013-01-24 16:43:00,
2013-01-24 11:49:00,18.5,10.7,30.29,North,355,9.0,16.0,71,0.00,,,0.00,Wunderground v.1.15,2013-01-24 16:49:00,
2013-01-24 11:55:00,18.4,9.9,30.30,NE,46,11.0,16.0,69,0.00,,,0.00,Wunderground v.1.15,2013-01-24 16:55:00,
2013-01-24 12:00:00,17.9,9.4,30.30,NNE,19,10.0,10.0,69,0.00,,,0.00,Wunderground v.1.15,2013-01-24 17:00:00,
2013-01-24 12:05:00,18.1,9.6,30.30,NNE,29,9.0,11.0,69,0.00,,,0.00,Wunderground v.1.15,2013-01-24 17:05:00,
2013-01-24 12:10:00,18.1,9.6,30.29,NNE,12,9.0,9.0,69,0.00,,,0.00,Wunderground v.1.15,2013-01-24 17:10:00,
2013-01-24 12:16:00,18.6,9.8,30.29,NNE,31,10.0,15.0,68,0.00,,,0.00,Wunderground v.1.15,2013-01-24 17:16:00,
2013-01-24 12:22:00,19.1,9.9,30.30,NNE,31,9.0,15.0,67,0.00,,,0.00,Wunderground v.1.15,2013-01-24 17:22:00,
2013-01-24 12:28:00,18.9,9.1,30.30,North,355,10.0,15.0,65,0.00,,,0.00,Wunderground v.1.15,2013-01-24 17:28:00,
2013-01-24 12:33:00,19.4,9.2,30.29,NE,38,11.0,12.0,64,0.00,,,0.00,Wunderground v.1.15,2013-01-24 17:33:00,
2013-01-24 12:39:00,20.0,9.4,30.30,North,349,10.0,15.0,63,0.00,,,0.00,Wunderground v.1.15,2013-01-24 17:39:00,
2013-01-24 12:44:00,20.2,8.9,30.29,NNE,20,9.0,12.0,61,0.00,,,0.00,Wunderground v.1.15,2013-01-24 17:44:00,
2013-01-24 12:49:00,20.4,9.4,30.29,NNE,30,8.0,12.0,62,0.00,,,0.00,Wunderground v.1.15,2013-01-24 17:49:00,
2013-01-24 12:55:00,20.3,9.0,30.30,NNE,18,9.0,14.0,61,0.00,,,0.00,Wunderground v.1.15,2013-01-24 17:55:00,
2013-01-24 13:01:00,20.4,8.3,30.30,NNE,15,11.0,11.0,59,0.00,,,0.00,Wunderground v.1.15,2013-01-24 18:01:00,
2013-01-24 13:07:00,20.3,7.5,30.30,NNE,23,11.0,13.0,57,0.00,,,0.00,Wunderground v.1.15,2013-01-24 18:07:00,
2013-01-24 13:12:00,20.8,7.9,30.30,NE,44,10.0,12.0,57,0.00,,,0.00,Wunderground v.1.15,2013-01-24 18:12:00,
2013-01-24 13:18:00,21.0,8.1,30.30,North,355,9.0,12.0,57,0.00,,,0.00,Wunderground v.1.15,2013-01-24 18:18:00,
2013-01-24 13:23:00,21.3,7.6,30.30,ENE,57,11.0,15.0,55,0.00,,,0.00,Wunderground v.1.15,2013-01-24 18:23:00,
2013-01-24 13:28:00,20.9,6.4,30.30,NE,40,11.0,15.0,53,0.00,,,0.00,Wunderground v.1.15,2013-01-24 18:28:00,
2013-01-24 13:34:00,20.9,6.4,30.30,NE,39,11.0,13.0,53,0.00,,,0.00,Wunderground v.1.15,2013-01-24 18:34:00,
2013-01-24 13:39:00,21.5,7.0,30.30,NNE,29,10.0,13.0,53,0.00,,,0.00,Wunderground v.1.15,2013-01-24 18:39:00,
2013-01-24 13:44:00,21.7,5.5,30.30,North,360,11.0,16.0,49,0.00,,,0.00,Wunderground v.1.15,2013-01-24 18:44:00,
2013-01-24 13:49:00,21.2,4.1,30.31,North,9,11.0,17.0,47,0.00,,,0.00,Wunderground v.1.15,2013-01-24 18:49:00,
2013-01-24 13:55:00,20.8,3.7,30.31,NNE,14,12.0,15.0,47,0.00,,,0.00,Wunderground v.1.15,2013-01-24 18:55:00,
2013-01-24 14:00:00,21.2,4.5,30.31,NE,36,12.0,12.0,48,0.00,,,0.00,Wunderground v.1.15,2013-01-24 19:00:00,
2013-01-24 14:05:00,21.5,3.4,30.30,NNE,32,13.0,14.0,45,0.00,,,0.00,Wunderground v.1.15,2013-01-24 19:05:00,
2013-01-24 14:11:00,21.9,3.8,30.30,ENE,59,13.0,14.0,45,0.00,,,0.00,Wunderground v.1.15,2013-01-24 19:11:00,
2013-01-24 14:16:00,21.9,3.3,30.30,NE,51,13.0,14.0,44,0.00,,,0.00,Wunderground v.1.15,2013-01-24 19:16:00,
2013-01-24 14:21:00,22.1,4.0,30.30,ENE,63,12.0,17.0,45,0.00,,,0.00,Wunderground v.1.15,2013-01-24 19:21:00,
2013-01-24 14:27:00,22.6,4.9,30.31,NE,48,11.0,19.0,46,0.00,,,0.00,Wunderground v.1.15,2013-01-24 19:27:00,
2013-01-24 14:32:00,22.4,3.7,30.31,North,9,11.0,15.0,44,0.00,,,0.00,Wunderground v.1.15,2013-01-24 19:32:00,
2013-01-24 14:37:00,22.3,3.2,30.31,NE,51,12.0,24.0,43,0.00,,,0.00,Wunderground v.1.15,2013-01-24 19:37:00,
2013-01-24 14:42:00,22.3,3.2,30.32,ENE,74,12.0,12.0,43,0.00,,,0.00,Wunderground v.1.15,2013-01-24 19:42:00,
2013-01-24 14:48:00,22.4,3.2,30.32,ENE,74,11.0,15.0,43,0.00,,,0.00,Wunderground v.1.15,2013-01-24 19:48:00,
2013-01-24 14:54:00,22.6,3.9,30.32,NE,38,11.0,12.0,44,0.00,,,0.00,Wunderground v.1.15,2013-01-24 19:54:00,
2013-01-24 14:59:00,22.7,3.0,30.33,NE,39,11.0,13.0,42,0.00,,,0.00,Wunderground v.1.15,2013-01-24 19:59:00,
2013-01-24 15:04:00,22.2,2.0,30.33,North,5,11.0,13.0,41,0.00,,,0.00,Wunderground v.1.15,2013-01-24 20:04:00,
2013-01-24 15:09:00,22.0,1.9,30.33,NE,38,10.0,18.0,41,0.00,,,0.00,Wunderground v.1.15,2013-01-24 20:09:00,
2013-01-24 15:14:00,21.8,1.7,30.33,North,355,10.0,15.0,41,0.00,,,0.00,Wunderground v.1.15,2013-01-24 20:14:00,
2013-01-24 15:19:00,22.2,2.0,30.34,NNE,19,10.0,15.0,41,0.00,,,0.00,Wunderground v.1.15,2013-01-24 20:19:00,
2013-01-24 15:25:00,22.6,1.9,30.34,NNE,22,10.0,12.0,40,0.00,,,0.00,Wunderground v.1.15,2013-01-24 20:25:00,
2013-01-24 15:30:00,22.9,2.1,30.34,NE,39,9.0,9.0,40,0.00,,,0.00,Wunderground v.1.15,2013-01-24 20:30:00,
2013-01-24 15:35:00,22.5,0.7,30.35,North,5,10.0,18.0,38,0.00,,,0.00,Wunderground v.1.15,2013-01-24 20:35:00,
2013-01-24 15:40:00,22.5,0.7,30.35,NNW,339,12.0,13.0,38,0.00,,,0.00,Wunderground v.1.15,2013-01-24 20:40:00,
2013-01-24 15:45:00,22.5,1.2,30.35,NNE,19,12.0,14.0,39,0.00,,,0.00,Wunderground v.1.15,2013-01-24 20:45:00,
2013-01-24 15:50:00,22.4,1.1,30.35,NE,47,12.0,12.0,39,0.00,,,0.00,Wunderground v.1.15,2013-01-24 20:50:00,
2013-01-24 15:56:00,22.5,1.8,30.35,NE,35,11.0,12.0,40,0.00,,,0.00,Wunderground v.1.15,2013-01-24 20:56:00,
2013-01-24 16:02:00,22.7,2.0,30.35,NE,46,10.0,13.0,40,0.00,,,0.00,Wunderground v.1.15,2013-01-24 21:02:00,
2013-01-24 16:07:00,22.6,1.9,30.35,NE,46,9.0,14.0,40,0.00,,,0.00,Wunderground v.1.15,2013-01-24 21:07:00,
2013-01-24 16:12:00,22.5,2.3,30.36,North,360,10.0,10.0,41,0.00,,,0.00,Wunderground v.1.15,2013-01-24 21:12:00,
2013-01-24 16:18:00,22.3,2.1,30.37,NNE,26,9.0,17.0,41,0.00,,,0.00,Wunderground v.1.15,2013-01-24 21:18:00,
2013-01-24 16:23:00,22.2,2.0,30.37,North,360,10.0,13.0,41,0.00,,,0.00,Wunderground v.1.15,2013-01-24 21:23:00,
2013-01-24 16:28:00,22.3,2.1,30.36,NNE,24,10.0,13.0,41,0.00,,,0.00,Wunderground v.1.15,2013-01-24 21:28:00,
2013-01-24 16:33:00,22.2,2.0,30.37,NNW,348,9.0,10.0,41,0.00,,,0.00,Wunderground v.1.15,2013-01-24 21:33:00,
2013-01-24 16:39:00,22.0,1.9,30.37,NNE,33,8.0,12.0,41,0.00,,,0.00,Wunderground v.1.15,2013-01-24 21:39:00,
2013-01-24 16:44:00,21.9,2.3,30.37,NNE,26,8.0,9.0,42,0.00,,,0.00,Wunderground v.1.15,2013-01-24 21:44:00,
2013-01-24 16:49:00,21.8,1.7,30.37,NNE,25,8.0,13.0,41,0.00,,,0.00,Wunderground v.1.15,2013-01-24 21:49:00,
2013-01-24 16:55:00,21.8,1.7,30.38,North,9,8.0,10.0,41,0.00,,,0.00,Wunderground v.1.15,2013-01-24 21:55:00,
2013-01-24 17:00:00,21.7,1.6,30.38,NNW,347,8.0,8.0,41,0.00,,,0.00,Wunderground v.1.15,2013-01-24 22:00:00,
2013-01-24 17:05:00,21.5,1.9,30.38,North,5,7.0,9.0,42,0.00,,,0.00,Wunderground v.1.15,2013-01-24 22:05:00,
2013-01-24 17:10:00,21.5,1.9,30.38,NNE,13,7.0,7.0,42,0.00,,,0.00,Wunderground v.1.15,2013-01-24 22:10:00,
2013-01-24 17:16:00,21.3,1.7,30.38,North,355,6.0,10.0,42,0.00,,,0.00,Wunderground v.1.15,2013-01-24 22:16:00,
2013-01-24 17:21:00,21.2,1.6,30.38,NNE,13,6.0,6.0,42,0.00,,,0.00,Wunderground v.1.15,2013-01-24 22:21:00,
2013-01-24 17:26:00,21.0,2.0,30.39,NNE,22,6.0,7.0,43,0.00,,,0.00,Wunderground v.1.15,2013-01-24 22:26:00,
2013-01-24 17:31:00,20.9,1.9,30.38,NNE,23,5.0,11.0,43,0.00,,,0.00,Wunderground v.1.15,2013-01-24 22:31:00,
2013-01-24 17:36:00,20.9,1.9,30.39,NE,39,6.0,11.0,43,0.00,,,0.00,Wunderground v.1.15,2013-01-24 22:36:00,
2013-01-24 17:42:00,20.9,1.9,30.39,NNE,21,7.0,12.0,43,0.00,,,0.00,Wunderground v.1.15,2013-01-24 22:42:00,
2013-01-24 17:47:00,20.8,2.3,30.40,NNE,17,7.0,12.0,44,0.00,,,0.00,Wunderground v.1.15,2013-01-24 22:47:00,
2013-01-24 17:53:00,20.8,1.8,30.40,NNW,342,6.0,7.0,43,0.00,,,0.00,Wunderground v.1.15,2013-01-24 22:53:00,
2013-01-24 17:58:00,20.8,2.3,30.40,NNE,17,6.0,7.0,44,0.00,,,0.00,Wunderground v.1.15,2013-01-24 22:58:00,
2013-01-24 18:04:00,20.6,2.1,30.41,NNE,31,5.0,8.0,44,0.00,,,0.00,Wunderground v.1.15,2013-01-24 23:04:00,
2013-01-24 18:09:00,20.5,2.5,30.41,NNE,24,6.0,9.0,45,0.00,,,0.00,Wunderground v.1.15,2013-01-24 23:09:00,
2013-01-24 18:14:00,20.4,2.4,30.41,NNE,12,6.0,10.0,45,0.00,,,0.00,Wunderground v.1.15,2013-01-24 23:14:00,
2013-01-24 18:20:00,20.4,2.4,30.42,NNE,19,6.0,6.0,45,0.00,,,0.00,Wunderground v.1.15,2013-01-24 23:20:00,
2013-01-24 18:25:00,20.3,2.3,30.42,NNE,19,5.0,9.0,45,0.00,,,0.00,Wunderground v.1.15,2013-01-24 23:25:00,
2013-01-24 18:31:00,20.3,2.8,30.42,NNE,32,6.0,11.0,46,0.00,,,0.00,Wunderground v.1.15,2013-01-24 23:31:00,
2013-01-24 18:36:00,20.3,2.8,30.42,NNE,22,6.0,11.0,46,0.00,,,0.00,Wunderground v.1.15,2013-01-24 23:36:00,
2013-01-24 18:41:00,20.2,2.7,30.43,NNE,17,6.0,7.0,46,0.00,,,0.00,Wunderground v.1.15,2013-01-24 23:41:00,
2013-01-24 18:46:00,20.2,3.2,30.43,North,5,5.0,7.0,47,0.00,,,0.00,Wunderground v.1.15,2013-01-24 23:46:00,
2013-01-24 18:52:00,20.0,3.0,30.43,NE,40,5.0,9.0,47,0.00,,,0.00,Wunderground v.1.15,2013-01-24 23:52:00,
2013-01-24 18:57:00,20.0,3.0,30.42,NNE,12,6.0,10.0,47,0.00,,,0.00,Wunderground v.1.15,2013-01-24 23:57:00,
2013-01-24 19:03:00,19.9,3.3,30.43,NNE,15,5.0,7.0,48,0.00,,,0.00,Wunderground v.1.15,2013-01-25 00:03:00,
2013-01-24 19:09:00,19.9,3.3,30.43,NNW,331,5.0,8.0,48,0.00,,,0.00,Wunderground v.1.15,2013-01-25 00:09:00,
2013-01-24 19:14:00,19.9,3.3,30.43,NNE,25,5.0,9.0,48,0.00,,,0.00,Wunderground v.1.15,2013-01-25 00:14:00,
2013-01-24 19:20:00,19.9,3.3,30.44,NNE,12,5.0,5.0,48,0.00,,,0.00,Wunderground v.1.15,2013-01-25 00:20:00,
2013-01-24 19:25:00,19.7,3.2,30.44,North,11,5.0,7.0,48,0.00,,,0.00,Wunderground v.1.15,2013-01-25 00:25:00,
2013-01-24 19:30:00,19.7,3.6,30.44,NNE,17,4.0,4.0,49,0.00,,,0.00,Wunderground v.1.15,2013-01-25 00:30:00,
2013-01-24 19:35:00,19.7,3.6,30.44,North,360,4.0,5.0,49,0.00,,,0.00,Wunderground v.1.15,2013-01-25 00:35:00,
2013-01-24 19:41:00,19.7,3.6,30.44,NNE,15,4.0,11.0,49,0.00,,,0.00,Wunderground v.1.15,2013-01-25 00:41:00,
2013-01-24 19:46:00,19.6,3.9,30.45,NNE,22,5.0,11.0,50,0.00,,,0.00,Wunderground v.1.15,2013-01-25 00:46:00,
2013-01-24 19:52:00,19.5,3.9,30.44,North,11,4.0,5.0,50,0.00,,,0.00,Wunderground v.1.15,2013-01-25 00:52:00,
2013-01-24 19:57:00,19.4,3.8,30.44,North,11,4.0,6.0,50,0.00,,,0.00,Wunderground v.1.15,2013-01-25 00:57:00,
2013-01-24 20:02:00,19.3,4.1,30.44,NNE,21,4.0,5.0,51,0.00,,,0.00,Wunderground v.1.15,2013-01-25 01:02:00,
2013-01-24 20:08:00,19.3,4.1,30.44,NNE,26,5.0,6.0,51,0.00,,,0.00,Wunderground v.1.15,2013-01-25 01:08:00,
2013-01-24 20:14:00,19.2,4.0,30.44,NNE,17,5.0,8.0,51,0.00,,,0.00,Wunderground v.1.15,2013-01-25 01:14:00,
2013-01-24 20:19:00,19.1,3.9,30.43,North,5,5.0,8.0,51,0.00,,,0.00,Wunderground v.1.15,2013-01-25 01:19:00,
2013-01-24 20:24:00,19.0,4.2,30.43,North,5,5.0,6.0,52,0.00,,,0.00,Wunderground v.1.15,2013-01-25 01:24:00,
2013-01-24 20:30:00,18.9,4.1,30.43,NNE,19,4.0,4.0,52,0.00,,,0.00,Wunderground v.1.15,2013-01-25 01:30:00,
2013-01-24 20:35:00,18.9,4.1,30.44,NNE,19,4.0,6.0,52,0.00,,,0.00,Wunderground v.1.15,2013-01-25 01:35:00,
2013-01-24 20:40:00,18.8,4.1,30.43,North,5,4.0,4.0,52,0.00,,,0.00,Wunderground v.1.15,2013-01-25 01:40:00,
2013-01-24 20:46:00,18.7,4.4,30.44,North,360,3.0,5.0,53,0.00,,,0.00,Wunderground v.1.15,2013-01-25 01:46:00,
2013-01-24 20:51:00,18.6,4.3,30.44,NNW,334,3.0,5.0,53,0.00,,,0.00,Wunderground v.1.15,2013-01-25 01:51:00,
2013-01-24 20:57:00,18.4,4.5,30.44,NNW,338,3.0,5.0,54,0.00,,,0.00,Wunderground v.1.15,2013-01-25 01:57:00,
2013-01-24 21:02:00,18.2,4.7,30.44,NNW,328,3.0,4.0,55,0.00,,,0.00,Wunderground v.1.15,2013-01-25 02:02:00,
2013-01-24 21:08:00,17.9,4.8,30.45,NW,322,3.0,5.0,56,0.00,,,0.00,Wunderground v.1.15,2013-01-25 02:08:00,
2013-01-24 21:13:00,17.6,4.9,30.45,NNW,338,4.0,4.0,57,0.00,,,0.00,Wunderground v.1.15,2013-01-25 02:13:00,
2013-01-24 21:18:00,17.6,5.3,30.45,NW,326,4.0,6.0,58,0.00,,,0.00,Wunderground v.1.15,2013-01-25 02:18:00,
2013-01-24 21:23:00,17.9,5.2,30.45,North,355,4.0,6.0,57,0.00,,,0.00,Wunderground v.1.15,2013-01-25 02:23:00,
2013-01-24 21:29:00,18.1,5.0,30.45,North,350,4.0,7.0,56,0.00,,,0.00,Wunderground v.1.15,2013-01-25 02:29:00,
2013-01-24 21:34:00,18.1,5.0,30.45,North,5,4.0,6.0,56,0.00,,,0.00,Wunderground v.1.15,2013-01-25 02:34:00,
2013-01-24 21:40:00,18.1,5.0,30.45,NNW,348,3.0,3.0,56,0.00,,,0.00,Wunderground v.1.15,2013-01-25 02:40:00,
2013-01-24 21:45:00,18.2,4.7,30.45,North,355,4.0,5.0,55,0.00,,,0.00,Wunderground v.1.15,2013-01-25 02:45:00,
2013-01-24 21:50:00,18.0,4.9,30.45,North,5,4.0,4.0,56,0.00,,,0.00,Wunderground v.1.15,2013-01-25 02:50:00,
2013-01-24 21:56:00,17.8,4.7,30.44,North,9,3.0,4.0,56,0.00,,,0.00,Wunderground v.1.15,2013-01-25 02:56:00,
2013-01-24 22:02:00,17.8,4.7,30.44,NNE,32,3.0,5.0,56,0.00,,,0.00,Wunderground v.1.15,2013-01-25 03:02:00,
2013-01-24 22:08:00,17.7,4.6,30.44,NNE,12,5.0,7.0,56,0.00,,,0.00,Wunderground v.1.15,2013-01-25 03:08:00,
2013-01-24 22:14:00,17.7,4.6,30.44,NE,46,6.0,8.0,56,0.00,,,0.00,Wunderground v.1.15,2013-01-25 03:14:00,
2013-01-24 22:19:00,17.8,4.3,30.44,NE,34,6.0,9.0,55,0.00,,,0.00,Wunderground v.1.15,2013-01-25 03:19:00,
2013-01-24 22:25:00,17.9,4.0,30.44,NE,46,7.0,10.0,54,0.00,,,0.00,Wunderground v.1.15,2013-01-25 03:25:00,
2013-01-24 22:30:00,17.8,4.3,30.44,NNE,27,7.0,7.0,55,0.00,,,0.00,Wunderground v.1.15,2013-01-25 03:30:00,
2013-01-24 22:35:00,17.7,4.2,30.44,NNE,22,7.0,9.0,55,0.00,,,0.00,Wunderground v.1.15,2013-01-25 03:35:00,
2013-01-24 22:41:00,17.7,4.2,30.44,NNE,24,6.0,6.0,55,0.00,,,0.00,Wunderground v.1.15,2013-01-25 03:41:00,
2013-01-24 22:46:00,17.6,4.2,30.44,NNW,348,6.0,8.0,55,0.00,,,0.00,Wunderground v.1.15,2013-01-25 03:46:00,
2013-01-24 22:52:00,17.6,4.2,30.44,North,5,5.0,6.0,55,0.00,,,0.00,Wunderground v.1.15,2013-01-25 03:52:00,
2013-01-24 22:57:00,17.6,4.2,30.45,NNW,338,5.0,6.0,55,0.00,,,0.00,Wunderground v.1.15,2013-01-25 03:57:00,
2013-01-24 23:03:00,17.7,3.8,30.45,North,5,5.0,6.0,54,0.00,,,0.00,Wunderground v.1.15,2013-01-25 04:03:00,
2013-01-24 23:08:00,17.5,3.7,30.45,North,5,5.0,6.0,54,0.00,,,0.00,Wunderground v.1.15,2013-01-25 04:08:00,
2013-01-24 23:13:00,17.5,3.7,30.44,NNE,29,6.0,9.0,54,0.00,,,0.00,Wunderground v.1.15,2013-01-25 04:13:00,
2013-01-24 23:19:00,17.2,3.8,30.44,NNE,25,7.0,9.0,55,0.00,,,0.00,Wunderground v.1.15,2013-01-25 04:19:00,
2013-01-24 23:24:00,17.1,3.7,30.44,NNE,32,6.0,10.0,55,0.00,,,0.00,Wunderground v.1.15,2013-01-25 04:24:00,
2013-01-24 23:30:00,17.0,3.2,30.44,NNE,16,5.0,5.0,54,0.00,,,0.00,Wunderground v.1.15,2013-01-25 04:30:00,
2013-01-24 23:35:00,17.1,3.3,30.44,NE,35,7.0,12.0,54,0.00,,,0.00,Wunderground v.1.15,2013-01-25 04:35:00,
2013-01-24 23:40:00,17.0,3.2,30.44,NNE,16,7.0,7.0,54,0.00,,,0.00,Wunderground v.1.15,2013-01-25 04:40:00,
2013-01-24 23:45:00,16.8,3.4,30.44,NNE,32,6.0,8.0,55,0.00,,,0.00,Wunderground v.1.15,2013-01-25 04:45:00,
2013-01-24 23:51:00,16.7,3.3,30.44,NNE,30,6.0,8.0,55,0.00,,,0.00,Wunderground v.1.15,2013-01-25 04:51:00,
2013-01-24 23:56:00,16.7,3.3,30.44,NNE,30,7.0,9.0,55,0.00,,,0.00,Wunderground v.1.15,2013-01-25 04:56:00,